CW4114 Weather Reports


Display with metric or nautical units.
time (UTC)temp
F
wind
direction
speed
MPH
gust
MPH
rain 1hr
in
rain 24hr
in
rain mn
in
humidity
%
barometer
mb
20171217061303 15 245 2.0 3.0 0.00 0.00 0.00 88 1024.0
20171217060803 15 245 1.0 1.0 0.00 0.00 0.00 87 1024.0
20171217060308 15 250 1.0 3.0 0.00 0.00 0.00 87 1024.0
20171217055803 15 259 2.0 2.0 0.00 0.00 0.00 87 1024.0
20171217055303 15 228 1.0 3.0 0.00 0.00 0.00 87 1024.0
20171217054804 15 257 2.0 2.0 0.00 0.00 0.00 87 1023.9
20171217054304 15 240 0.0 3.0 0.00 0.00 0.00 87 1024.0
20171217053803 15 258 1.0 3.0 0.00 0.00 0.00 87 1024.1
20171217053303 15 257 1.0 3.0 0.00 0.00 0.00 87 1024.1
20171217052803 15 224 1.0 3.0 0.00 0.00 0.00 87 1024.2
20171217052308 15 227 2.0 3.0 0.00 0.00 0.00 87 1024.2
20171217051805 15 224 2.0 3.0 0.00 0.00 0.00 87 1024.1
20171217051302 15 223 1.0 3.0 0.00 0.00 0.00 87 1024.1
20171217050806 15 244 2.0 3.0 0.00 0.00 0.00 87 1024.0
20171217050303 15 204 1.0 5.0 0.00 0.00 0.00 87 1024.1
20171217045804 15 195 2.0 5.0 0.00 0.00 0.00 87 1024.0
20171217045303 15 214 2.0 5.0 0.00 0.00 0.00 87 1023.9
20171217044806 15 199 3.0 5.0 0.00 0.00 0.00 87 1024.0
20171217044308 15 212 2.0 5.0 0.00 0.00 0.00 87 1024.1
20171217043806 15 209 2.0 4.0 0.00 0.00 0.00 87 1024.1
20171217043304 15 202 2.0 5.0 0.00 0.00 0.00 87 1024.1
20171217042803 15 197 2.0 5.0 0.00 0.00 0.00 87 1024.0
20171217042304 15 227 3.0 6.0 0.00 0.00 0.00 87 1024.1
20171217041803 15 231 2.0 6.0 0.00 0.00 0.00 87 1024.0
20171217041303 15 216 2.0 4.0 0.00 0.00 0.00 87 1023.9
20171217040804 15 192 1.0 3.0 0.00 0.00 0.00 87 1023.8
20171217040304 15 231 2.0 3.0 0.00 0.00 0.00 87 1023.7
20171217035810 15 196 1.0 4.0 0.00 0.00 0.00 88 1023.7
20171217035304 15 196 1.0 4.0 0.00 0.00 0.00 87 1023.7
20171217034805 15 196 2.0 4.0 0.00 0.00 0.00 87 1023.7
20171217034305 15 190 1.0 5.0 0.00 0.00 0.00 88 1023.9
20171217033802 15 212 2.0 5.0 0.00 0.00 0.00 88 1023.9
20171217033303 14 200 2.0 4.0 0.00 0.00 0.00 88 1023.8
20171217032802 14 200 2.0 4.0 0.00 0.00 0.00 88 1023.8
20171217032302 14 206 2.0 4.0 0.00 0.00 0.00 88 1023.9
20171217031802 14 204 2.0 4.0 0.00 0.00 0.00 89 1024.0
20171217031312 14 224 2.0 5.0 0.00 0.00 0.00 88 1024.0
20171217030804 14 231 2.0 5.0 0.00 0.00 0.00 89 1023.9
20171217030302 14 238 2.0 5.0 0.00 0.00 0.00 89 1024.0
20171217025802 14 224 2.0 5.0 0.00 0.00 0.00 89 1023.8
20171217025303 14 204 3.0 5.0 0.00 0.00 0.00 89 1023.8
20171217024801 14 216 3.0 4.0 0.00 0.00 0.00 89 1023.7
20171217024259 14 220 2.0 4.0 0.00 0.00 0.00 89 1023.5
20171217023759 14 210 2.0 5.0 0.00 0.00 0.00 89 1023.5
20171217023258 14 217 3.0 5.0 0.00 0.00 0.00 89 1023.5
20171217022805 14 206 1.0 4.0 0.00 0.00 0.00 89 1023.2
20171217022257 14 206 2.0 4.0 0.00 0.00 0.00 89 1023.4
20171217021757 14 231 2.0 4.0 0.00 0.00 0.00 89 1023.4
20171217021257 14 236 2.0 3.0 0.00 0.00 0.00 89 1023.3
20171217020756 14 255 2.0 3.0 0.00 0.00 0.00 89 1023.2
20171217020255 14 231 2.0 3.0 0.00 0.00 0.00 89 1023.2
20171217015753 14 240 1.0 3.0 0.00 0.00 0.00 89 1023.1
20171217015253 14 234 2.0 3.0 0.00 0.00 0.00 89 1023.2
20171217014752 14 254 1.0 3.0 0.00 0.00 0.00 89 1023.3
20171217014258 14 258 2.0 3.0 0.00 0.00 0.00 89 1023.3
20171217013751 14 261 2.0 3.0 0.00 0.00 0.00 89 1023.3
20171217013252 14 257 1.0 3.0 0.00 0.00 0.00 89 1023.3
20171217012751 14 220 2.0 3.0 0.00 0.00 0.00 89 1023.2
20171217012250 14 261 2.0 3.0 0.00 0.00 0.00 89 1023.1
20171217011748 14 223 1.0 2.0 0.00 0.00 0.00 89 1023.0
20171217011248 14 224 0.0 3.0 0.00 0.00 0.00 89 1023.0
20171217010747 14 255 1.0 4.0 0.00 0.00 0.00 89 1023.1
20171217010249 14 265 3.0 4.0 0.00 0.00 0.00 89 1023.1
20171217005754 14 258 1.0 5.0 0.00 0.00 0.00 89 1022.9
20171217005246 14 243 3.0 5.0 0.00 0.00 0.00 89 1022.9
20171217004748 14 200 1.0 3.0 0.00 0.00 0.00 89 1022.8
20171217004244 14 219 2.0 4.0 0.00 0.00 0.00 88 1022.7
20171217003744 14 216 2.0 4.0 0.00 0.00 0.00 88 1022.8
20171217003243 14 230 2.0 3.0 0.00 0.00 0.00 88 1022.8
20171217002742 14 233 0.0 3.0 0.00 0.00 0.00 88 1022.8
20171217002241 14 248 1.0 4.0 0.00 0.00 0.00 88 1022.7
20171217001740 14 227 2.0 5.0 0.00 0.00 0.00 88 1022.6
20171217001244 14 234 4.0 5.0 0.00 0.00 0.00 88 1022.6
20171217000743 14 171 1.0 3.0 0.00 0.00 0.00 88 1022.4
20171217000240 14 230 1.0 3.0 0.00 0.00 0.00 88 1022.4
20171216235740 14 283 2.0 3.0 0.00 0.00 0.00 88 1022.2
20171216235240 14 279 2.0 3.0 0.00 0.00 0.00 88 1022.2
20171216234738 14 278 1.0 4.0 0.00 0.00 0.00 88 1021.9
20171216234237 14 252 2.0 4.0 0.00 0.00 0.00 88 1021.9
20171216233738 14 203 2.0 3.0 0.00 0.00 0.00 88 1021.7
20171216233239 14 209 0.0 2.0 0.00 0.00 0.00 87 1021.5
20171216232740 14 234 0.0 2.0 0.00 0.00 0.00 87 1021.4
20171216232236 14 268 0.0 4.0 0.00 0.00 0.00 87 1021.5
20171216231735 14 285 1.0 4.0 0.00 0.00 0.00 86 1021.6
20171216231236 14 264 2.0 4.0 0.00 0.00 0.00 86 1021.5
20171216230736 14 281 1.0 3.0 0.00 0.00 0.00 86 1021.5
20171216230237 14 262 1.0 3.0 0.00 0.00 0.00 85 1021.5
20171216225735 14 265 0.0 3.0 0.00 0.00 0.00 85 1021.2
20171216225234 14 41 1.0 5.0 0.00 0.00 0.00 85 1021.1
20171216224741 14 42 2.0 5.0 0.00 0.00 0.00 86 1021.2
20171216224238 14 17 0.0 5.0 0.00 0.00 0.00 86 1021.2
20171216223733 14 59 0.0 5.0 0.00 0.00 0.00 86 1020.9
20171216223244 14 21 0.0 6.0 0.00 0.00 0.00 87 1021.0
20171216222733 14 25 2.0 3.0 0.00 0.00 0.00 87 1021.0
20171216222238 14 319 1.0 3.0 0.00 0.00 0.00 87 1021.1
20171216221734 14 305 1.0 3.0 0.00 0.00 0.00 87 1021.1
20171216221234 14 310 0.0 4.0 0.00 0.00 0.00 87 1021.0
20171216220732 14 309 2.0 4.0 0.00 0.00 0.00 87 1021.1
20171216220240 14 247 2.0 3.0 0.00 0.00 0.00 87 1020.9
20171216215735 14 309 0.0 3.0 0.00 0.00 0.00 87 1020.6
20171216215232 14 344 1.0 5.0 0.00 0.00 0.00 87 1020.5
20171216214729 14 61 2.0 5.0 0.00 0.00 0.00 87 1020.3
20171216214230 14 69 1.0 3.0 0.00 0.00 0.00 87 1020.3
20171216213727 14 44 1.0 3.0 0.00 0.00 0.00 87 1020.2
20171216213227 14 42 1.0 4.0 0.00 0.00 0.00 87 1020.2
20171216212728 14 25 2.0 4.0 0.00 0.00 0.00 87 1020.1
20171216212226 14 337 1.0 3.0 0.00 0.00 0.00 87 1020.0
20171216211732 14 28 1.0 3.0 0.00 0.00 0.00 87 1019.9
20171216211229 14 337 2.0 3.0 0.00 0.00 0.00 87 1019.8
20171216210727 14 330 0.0 4.0 0.00 0.00 0.00 87 1019.7
20171216210223 14 336 1.0 4.0 0.00 0.00 0.00 87 1019.8
20171216205723 14 11 1.0 2.0 0.00 0.00 0.00 87 1019.6
20171216205222 14 21 0.0 3.0 0.00 0.00 0.00 87 1019.6
20171216204723 14 348 0.0 4.0 0.00 0.00 0.00 87 1019.4
20171216204221 14 48 1.0 6.0 0.00 0.00 0.00 86 1019.3
20171216203722 14 358 2.0 6.0 0.00 0.00 0.00 86 1019.3
20171216203225 14 8 2.0 5.0 0.00 0.00 0.00 87 1019.2
20171216202721 14 34 2.0 4.0 0.00 0.00 0.00 87 1019.2
20171216202218 14 11 2.0 4.0 0.00 0.00 0.00 86 1019.3
20171216201717 14 4 2.0 4.0 0.00 0.00 0.00 86 1019.3
20171216201217 14 44 1.0 4.0 0.00 0.00 0.00 86 1019.3
20171216200721 14 310 2.0 4.0 0.00 0.00 0.00 87 1019.0
20171216200216 14 326 2.0 5.0 0.00 0.00 0.00 86 1018.9
20171216195720 14 1 3.0 7.0 0.00 0.00 0.00 86 1018.9
20171216195217 14 4 3.0 6.0 0.00 0.00 0.00 87 1018.6
20171216194715 14 73 1.0 4.0 0.00 0.00 0.00 87 1018.5
20171216194217 14 55 1.0 7.0 0.00 0.00 0.00 87 1018.4
20171216193716 14 343 2.0 9.0 0.00 0.00 0.00 87 1018.4
20171216193210 13 52 2.0 7.0 0.00 0.00 0.00 86 1018.5
20171216192712 14 80 3.0 7.0 0.00 0.00 0.00 86 1018.4
20171216192211 13 331 2.0 7.0 0.00 0.00 0.00 86 1018.4
20171216191711 13 21 2.0 7.0 0.00 0.00 0.00 86 1018.3
20171216191211 14 14 3.0 6.0 0.00 0.00 0.00 86 1018.3
20171216190711 14 30 2.0 5.0 0.00 0.00 0.00 87 1018.5
20171216190210 13 186 2.0 7.0 0.00 0.00 0.00 87 1018.5
20171216185713 13 327 3.0 9.0 0.00 0.00 0.00 86 1018.5
20171216185210 14 27 3.0 9.0 0.00 0.00 0.00 86 1018.5
20171216184710 14 25 2.0 9.0 0.00 0.00 0.00 87 1018.3
20171216184209 13 24 4.0 9.0 0.00 0.00 0.00 87 1018.0
20171216183709 14 51 4.0 9.0 0.00 0.00 0.00 86 1018.0
20171216183211 14 62 2.0 7.0 0.00 0.00 0.00 86 1018.0
20171216182708 14 61 3.0 9.0 0.00 0.00 0.00 86 1018.0
20171216182207 14 12 3.0 9.0 0.00 0.00 0.00 86 1018.1
20171216181707 14 348 3.0 7.0 0.00 0.00 0.00 87 1018.0
20171216181214 14 12 3.0 9.0 0.00 0.00 0.00 87 1018.0
20171216180708 14 35 4.0 9.0 0.00 0.00 0.00 87 1018.1
20171216180205 13 56 4.0 9.0 0.00 0.00 0.00 87 1018.1
20171216175704 13 38 4.0 9.0 0.00 0.00 0.00 87 1018.4
20171216175209 13 34 1.0 4.0 0.00 0.00 0.00 87 1018.4
20171216174702 13 82 1.0 7.0 0.00 0.00 0.00 87 1018.3
20171216174203 13 42 1.0 7.0 0.00 0.00 0.00 87 1018.1
20171216173701 13 9 4.0 9.0 0.00 0.00 0.00 87 1018.2
20171216173201 13 52 3.0 9.0 0.00 0.00 0.00 87 1018.2
20171216172702 13 32 4.0 9.0 0.00 0.00 0.00 87 1018.1
20171216172207 13 51 4.0 9.0 0.00 0.00 0.00 87 1017.9
20171216171704 13 226 2.0 7.0 0.00 0.00 0.00 87 1018.2
20171216171201 14 27 4.0 12.0 0.00 0.00 0.00 88 1018.0
20171216170700 14 44 3.0 12.0 0.00 0.00 0.00 88 1017.9
20171216170200 14 69 2.0 12.0 0.00 0.00 0.00 88 1017.9
20171216165659 13 63 6.0 13.0 0.00 0.00 0.00 88 1017.9
20171216165158 13 49 6.0 13.0 0.00 0.00 0.00 88 1017.8
20171216164659 13 58 6.0 13.0 0.00 0.00 0.00 88 1017.8
20171216164159 14 34 8.0 13.0 0.00 0.00 0.00 88 1017.7
20171216163657 14 52 8.0 13.0 0.00 0.00 0.00 88 1017.6
20171216163200 14 58 7.0 15.0 0.00 0.00 0.00 88 1017.7
20171216162655 14 51 9.0 15.0 0.00 0.00 0.00 88 1017.6
20171216162154 14 65 7.0 13.0 0.00 0.00 0.00 88 1017.6
20171216161655 14 38 5.0 14.0 0.00 0.00 0.00 88 1017.7
20171216161155 14 38 5.0 14.0 0.00 0.00 0.00 88 1017.8
20171216160656 14 59 6.0 14.0 0.00 0.00 0.00 87 1017.9
20171216160155 14 25 4.0 11.0 0.00 0.00 0.00 88 1017.9
20171216155653 14 21 4.0 12.0 0.00 0.00 0.00 88 1017.9
20171216155154 14 66 7.0 13.0 0.00 0.00 0.00 88 1017.9
20171216154702 15 68 8.0 15.0 0.00 0.00 0.00 88 1017.9
20171216154153 15 35 4.0 15.0 0.00 0.00 0.00 88 1017.7
20171216153655 15 69 8.0 14.0 0.00 0.00 0.00 87 1017.5
20171216153153 15 63 6.0 14.0 0.00 0.00 0.00 86 1017.4
20171216152652 15 27 10.0 13.0 0.00 0.00 0.00 86 1017.2
20171216152153 15 27 6.0 10.0 0.00 0.00 0.00 86 1017.2
20171216151653 15 56 4.0 10.0 0.00 0.00 0.00 85 1017.1
20171216151152 15 38 3.0 9.0 0.00 0.00 0.00 84 1016.9
20171216150652 15 34 5.0 9.0 0.00 0.00 0.00 84 1017.0
20171216150158 15 65 4.0 7.0 0.00 0.00 0.00 84 1016.9
20171216145654 15 14 3.0 11.0 0.00 0.00 0.00 85 1016.8
20171216145152 15 31 4.0 11.0 0.00 0.00 0.00 85 1016.6
20171216144653 15 92 4.0 12.0 0.00 0.00 0.00 85 1016.5
20171216144152 15 30 4.0 13.0 0.00 0.00 0.00 85 1016.4
20171216143651 15 44 5.0 13.0 0.00 0.00 0.00 85 1016.3
20171216143151 15 17 5.0 12.0 0.00 0.00 0.00 85 1016.2
20171216142651 15 355 5.0 11.0 0.00 0.00 0.00 85 1016.1
20171216142154 15 28 4.0 11.0 0.00 0.00 0.00 84 1016.0
20171216141649 15 0 5.0 11.0 0.00 0.00 0.00 85 1016.0
20171216141149 15 27 7.0 11.0 0.00 0.00 0.00 85 1015.9
20171216140650 15 0 6.0 11.0 0.00 0.00 0.00 85 1015.9
20171216140150 15 66 5.0 11.0 0.00 0.00 0.00 86 1015.8
20171216135650 15 48 4.0 13.0 0.00 0.00 0.00 85 1015.7
20171216135151 15 357 2.0 13.0 0.00 0.00 0.00 86 1015.6
20171216134648 15 45 8.0 11.0 0.00 0.00 0.00 86 1015.5
20171216134146 15 4 4.0 10.0 0.00 0.00 0.00 86 1015.4
20171216133648 15 12 4.0 7.0 0.00 0.00 0.00 86 1015.3
20171216133146 15 11 4.0 10.0 0.00 0.00 0.00 86 1015.2
20171216132643 15 27 4.0 12.0 0.00 0.00 0.00 86 1015.2
20171216132143 16 275 3.0 12.0 0.00 0.00 0.00 87 1014.9
20171216131641 16 11 5.0 11.0 0.00 0.00 0.00 86 1014.9
20171216131140 16 351 4.0 12.0 0.00 0.00 0.00 87 1014.8
20171216130640 16 28 4.0 12.0 0.00 0.00 0.00 87 1014.6
20171216130139 16 117 4.0 11.0 0.00 0.00 0.00 86 1014.5
20171216125638 16 32 5.0 11.0 0.00 0.00 0.00 86 1014.4
20171216125143 16 34 3.0 12.0 0.00 0.00 0.00 86 1014.4
20171216124640 16 19 6.0 12.0 0.00 0.00 0.00 86 1014.3
20171216124137 16 24 5.0 11.0 0.00 0.00 0.00 86 1014.4
20171216123637 16 56 5.0 14.0 0.00 0.00 0.00 87 1014.3
20171216123138 16 52 5.0 14.0 0.00 0.00 0.00 87 1014.2
20171216122635 16 32 4.0 12.0 0.00 0.00 0.00 86 1014.0
20171216122136 16 12 6.0 11.0 0.00 0.00 0.00 87 1014.1
20171216121634 16 45 5.0 12.0 0.00 0.00 0.00 87 1013.9
20171216121135 16 55 3.0 12.0 0.00 0.00 0.00 87 1013.8
20171216120639 16 18 6.0 13.0 0.00 0.00 0.00 87 1013.7
20171216120137 16 355 2.0 13.0 0.00 0.00 0.00 86 1013.6
20171216115634 17 21 6.0 13.0 0.00 0.00 0.00 86 1013.6
20171216115134 17 47 4.0 13.0 0.00 0.00 0.00 86 1013.4
20171216114635 17 35 5.0 13.0 0.00 0.00 0.00 85 1013.3
20171216114135 17 5 3.0 13.0 0.00 0.00 0.00 86 1013.2
20171216113634 17 75 4.0 12.0 0.00 0.00 0.00 85 1013.2
20171216113135 17 358 4.0 12.0 0.00 0.00 0.00 85 1013.0
20171216112642 17 35 6.0 12.0 0.00 0.00 0.00 85 1012.9
20171216112135 17 12 5.0 13.0 0.00 0.00 0.00 85 1012.9
20171216111633 17 340 6.0 13.0 0.00 0.00 0.00 84 1012.8
20171216111134 17 55 4.0 13.0 0.00 0.00 0.00 84 1012.7
20171216110633 17 44 3.0 13.0 0.00 0.00 0.00 84 1012.6
20171216110133 17 37 4.0 9.0 0.00 0.00 0.00 84 1012.4
20171216105632 17 0 4.0 11.0 0.00 0.00 0.00 84 1012.3
20171216105140 17 45 5.0 11.0 0.00 0.00 0.00 84 1012.4
20171216104632 17 351 3.0 12.0 0.00 0.00 0.00 84 1012.3
20171216104131 17 348 5.0 12.0 0.00 0.00 0.00 84 1012.2
20171216103634 17 28 1.0 11.0 0.00 0.00 0.00 84 1012.1
20171216103131 17 42 2.0 12.0 0.00 0.00 0.00 84 1012.0
20171216102631 17 24 5.0 12.0 0.00 0.00 0.00 85 1011.9
20171216102131 17 355 4.0 12.0 0.00 0.00 0.00 85 1012.0
20171216101633 17 25 6.0 11.0 0.00 0.00 0.00 85 1011.9
20171216101134 17 336 4.0 12.0 0.00 0.00 0.00 84 1011.9
20171216100633 17 17 4.0 11.0 0.00 0.00 0.00 84 1011.9
20171216100130 17 15 4.0 13.0 0.00 0.00 0.00 85 1011.7
20171216095630 17 11 5.0 13.0 0.00 0.00 0.00 86 1011.8
20171216095130 17 299 4.0 11.0 0.00 0.00 0.00 86 1011.6
20171216094630 17 330 4.0 14.0 0.00 0.00 0.00 87 1011.5
20171216094130 17 24 6.0 14.0 0.00 0.00 0.00 87 1011.3
20171216093629 18 331 7.0 13.0 0.00 0.00 0.00 87 1011.3
20171216093134 18 54 5.0 11.0 0.00 0.00 0.00 86 1011.2
20171216092633 18 24 3.0 11.0 0.00 0.00 0.00 87 1011.2
20171216092130 18 30 6.0 11.0 0.00 0.00 0.00 87 1011.0
20171216091628 18 303 4.0 13.0 0.00 0.00 0.00 86 1010.9
20171216091125 18 338 6.0 13.0 0.00 0.00 0.00 87 1010.8
20171216090626 18 336 4.0 12.0 0.00 0.00 0.00 87 1010.7
20171216090125 18 340 4.0 12.0 0.00 0.00 0.00 87 1010.6
20171216085626 18 357 4.0 12.0 0.00 0.00 0.00 86 1010.7
20171216085123 19 11 3.0 12.0 0.00 0.00 0.00 87 1010.6
20171216084623 19 12 5.0 12.0 0.00 0.00 0.00 86 1010.6
20171216084122 19 0 4.0 11.0 0.00 0.00 0.00 86 1010.5
20171216083624 19 0 5.0 16.0 0.00 0.00 0.00 86 1010.4
20171216083122 19 8 4.0 16.0 0.00 0.00 0.00 87 1010.3
20171216082621 19 354 5.0 19.0 0.00 0.00 0.00 87 1010.3
20171216082120 20 11 6.0 19.0 0.00 0.00 0.00 87 1010.3
20171216081621 20 51 6.0 17.0 0.00 0.00 0.00 87 1010.1
20171216081122 20 355 6.0 13.0 0.00 0.00 0.00 87 1010.1
20171216080620 20 323 4.0 9.0 0.00 0.00 0.00 87 1010.1
20171216080120 20 300 3.0 7.0 0.00 0.00 0.00 85 1010.0
20171216075629 20 333 0.0 7.0 0.00 0.00 0.00 85 1009.9
20171216075119 20 296 5.0 7.0 0.00 0.00 0.00 85 1009.8
20171216074621 20 276 4.0 9.0 0.00 0.00 0.00 84 1009.7
20171216074119 20 306 4.0 9.0 0.00 0.00 0.00 85 1009.6
20171216073619 20 289 4.0 6.0 0.00 0.00 0.00 84 1009.4
20171216073122 20 302 4.0 7.0 0.00 0.00 0.00 84 1009.2
20171216072618 20 275 4.0 7.0 0.00 0.00 0.00 84 1009.2
20171216072118 20 299 4.0 5.0 0.00 0.00 0.00 84 1009.1
20171216071629 20 293 3.0 7.0 0.00 0.00 0.00 84 1009.1
20171216071117 20 310 2.0 7.0 0.00 0.00 0.00 84 1009.1
20171216070619 20 330 4.0 6.0 0.00 0.00 0.00 84 1009.0
20171216070117 20 290 3.0 7.0 0.00 0.00 0.00 84 1009.0
20171216065618 20 281 4.0 10.0 0.00 0.00 0.00 84 1008.9
20171216065117 20 274 4.0 10.0 0.00 0.00 0.00 84 1009.0
20171216064617 20 269 6.0 10.0 0.00 0.00 0.00 84 1008.9
20171216064118 20 264 4.0 10.0 0.00 0.00 0.00 84 1008.8
20171216063618 20 278 5.0 10.0 0.00 0.00 0.00 85 1008.8
20171216063120 20 306 4.0 10.0 0.00 0.00 0.00 84 1008.7
20171216062617 20 312 5.0 10.0 0.00 0.00 0.00 84 1008.7
20171216062116 20 261 5.0 10.0 0.00 0.00 0.00 84 1008.6